TimeEDT,TemperatureF,Dew PointF,Humidity,Sea Level PressureIn,VisibilityMPH,Wind Direction,Wind SpeedMPH,Gust SpeedMPH,PrecipitationIn,Events,Conditions,WindDirDegrees,DateUTC
12:15 AM,30.2,14.0,51,29.95,10.0,WNW,4.6,-,N/A,,Clear,300,2013-03-22 04:15:00
12:35 AM,30.2,12.2,47,29.95,10.0,Calm,Calm,-,N/A,,Clear,0,2013-03-22 04:35:00
12:55 AM,30.2,12.2,47,29.96,10.0,WNW,3.5,-,N/A,,Clear,300,2013-03-22 04:55:00
1:15 AM,30.2,12.2,47,29.96,10.0,NW,4.6,-,N/A,,Clear,320,2013-03-22 05:15:00
1:35 AM,30.2,12.2,47,29.97,10.0,NW,5.8,-,N/A,,Clear,310,2013-03-22 05:35:00
1:55 AM,30.2,12.2,47,29.97,10.0,NW,3.5,-,N/A,,Clear,310,2013-03-22 05:55:00
2:15 AM,30.2,12.2,47,29.97,10.0,NW,3.5,-,N/A,,Clear,310,2013-03-22 06:15:00
2:35 AM,28.4,12.2,51,29.97,10.0,NW,3.5,-,N/A,,Clear,310,2013-03-22 06:35:00
2:55 AM,28.4,12.2,51,29.97,10.0,WNW,3.5,-,N/A,,Clear,300,2013-03-22 06:55:00
3:15 AM,28.4,14.0,55,29.97,10.0,WNW,3.5,-,N/A,,Clear,300,2013-03-22 07:15:00
3:35 AM,28.4,12.2,51,29.97,10.0,WNW,4.6,-,N/A,,Clear,300,2013-03-22 07:35:00
3:55 AM,26.6,14.0,59,29.97,10.0,WNW,4.6,-,N/A,,Clear,290,2013-03-22 07:55:00
4:15 AM,26.6,14.0,59,29.98,10.0,WNW,4.6,-,N/A,,Clear,290,2013-03-22 08:15:00
4:35 AM,26.6,14.0,59,29.97,10.0,WNW,4.6,-,N/A,,Clear,290,2013-03-22 08:35:00
4:55 AM,26.6,14.0,59,29.97,10.0,WNW,4.6,-,N/A,,Clear,300,2013-03-22 08:55:00
5:15 AM,26.6,14.0,59,29.97,10.0,WNW,3.5,-,N/A,,Clear,290,2013-03-22 09:15:00
5:35 AM,26.6,14.0,59,29.98,10.0,WNW,3.5,-,N/A,,Clear,290,2013-03-22 09:35:00
5:55 AM,26.6,14.0,59,29.99,10.0,WNW,3.5,-,N/A,,Clear,290,2013-03-22 09:55:00
6:15 AM,26.6,14.0,59,29.99,10.0,WNW,4.6,-,N/A,,Clear,290,2013-03-22 10:15:00
6:35 AM,26.6,14.0,59,30.00,10.0,WNW,4.6,-,N/A,,Clear,290,2013-03-22 10:35:00
6:55 AM,26.6,14.0,59,30.01,10.0,Calm,Calm,-,N/A,,Clear,0,2013-03-22 10:55:00
7:15 AM,26.6,14.0,59,30.02,10.0,WSW,3.5,-,N/A,,Clear,240,2013-03-22 11:15:00
7:35 AM,26.6,15.8,64,30.03,10.0,West,3.5,-,N/A,,Clear,260,2013-03-22 11:35:00
7:55 AM,28.4,15.8,59,30.04,10.0,West,4.6,-,N/A,,Clear,270,2013-03-22 11:55:00
8:15 AM,30.2,15.8,55,30.04,10.0,WNW,8.1,-,N/A,,Clear,290,2013-03-22 12:15:00
8:35 AM,30.2,15.8,55,30.05,10.0,WNW,8.1,-,N/A,,Clear,300,2013-03-22 12:35:00
8:55 AM,33.8,15.8,48,30.06,10.0,WNW,6.9,-,N/A,,Clear,290,2013-03-22 12:55:00
9:15 AM,33.8,15.8,48,30.06,10.0,West,9.2,-,N/A,,Clear,270,2013-03-22 13:15:00
9:35 AM,35.6,14.0,41,30.06,10.0,West,6.9,-,N/A,,Clear,260,2013-03-22 13:35:00
9:55 AM,35.6,12.2,38,30.06,10.0,West,6.9,-,N/A,,Clear,260,2013-03-22 13:55:00
10:15 AM,37.4,12.2,36,30.06,10.0,West,9.2,-,N/A,,Clear,270,2013-03-22 14:15:00
10:35 AM,39.2,12.2,33,30.05,10.0,WSW,9.2,-,N/A,,Clear,240,2013-03-22 14:35:00
10:55 AM,39.2,12.2,33,30.05,10.0,NW,5.8,-,N/A,,Clear,310,2013-03-22 14:55:00
11:15 AM,42.8,12.2,29,30.05,10.0,WSW,8.1,16.1,N/A,,Clear,250,2013-03-22 15:15:00
11:35 AM,42.8,12.2,29,30.03,10.0,West,11.5,-,N/A,,Clear,280,2013-03-22 15:35:00
11:55 AM,42.8,12.2,29,30.03,10.0,West,8.1,-,N/A,,Clear,260,2013-03-22 15:55:00
12:15 PM,42.8,12.2,29,30.02,10.0,SW,12.7,19.6,N/A,,Clear,230,2013-03-22 16:15:00
12:35 PM,44.6,12.2,27,30.00,10.0,West,8.1,20.7,N/A,,Clear,260,2013-03-22 16:35:00
12:55 PM,46.4,12.2,25,30.00,10.0,West,10.4,19.6,N/A,,Clear,260,2013-03-22 16:55:00
1:15 PM,46.4,12.2,25,29.99,10.0,West,12.7,-,N/A,,Clear,260,2013-03-22 17:15:00
1:35 PM,46.4,14.0,27,29.98,10.0,SSW,13.8,-,N/A,,Clear,210,2013-03-22 17:35:00
1:55 PM,48.2,12.2,24,29.97,10.0,SW,12.7,18.4,N/A,,Clear,230,2013-03-22 17:55:00
2:15 PM,50.0,14.0,24,29.96,10.0,West,8.1,11.5,N/A,,Clear,260,2013-03-22 18:15:00
2:35 PM,50.0,14.0,24,29.95,10.0,WSW,13.8,20.7,N/A,,Clear,240,2013-03-22 18:35:00
2:55 PM,50.0,12.2,22,29.94,10.0,West,11.5,20.7,N/A,,Clear,270,2013-03-22 18:55:00
3:15 PM,51.8,12.2,21,29.94,10.0,WSW,10.4,19.6,N/A,,Clear,240,2013-03-22 19:15:00
3:35 PM,51.8,12.2,21,29.93,10.0,West,15.0,21.9,N/A,,Clear,280,2013-03-22 19:35:00
3:55 PM,53.6,10.4,18,29.93,10.0,WSW,10.4,19.6,N/A,,Clear,250,2013-03-22 19:55:00
4:15 PM,51.8,10.4,19,29.92,10.0,West,13.8,20.7,N/A,,Clear,260,2013-03-22 20:15:00
4:35 PM,53.6,10.4,18,29.92,10.0,West,15.0,19.6,N/A,,Clear,260,2013-03-22 20:35:00
4:55 PM,53.6,10.4,18,29.92,10.0,West,10.4,19.6,N/A,,Clear,280,2013-03-22 20:55:00
5:15 PM,53.6,10.4,18,29.93,10.0,WSW,11.5,18.4,N/A,,Clear,240,2013-03-22 21:15:00
5:35 PM,51.8,10.4,19,29.93,10.0,WSW,9.2,-,N/A,,Clear,250,2013-03-22 21:35:00
5:55 PM,51.8,10.4,19,29.93,10.0,WSW,15.0,19.6,N/A,,Clear,250,2013-03-22 21:55:00
6:15 PM,51.8,10.4,19,29.94,10.0,West,12.7,20.7,N/A,,Clear,270,2013-03-22 22:15:00
6:35 PM,51.8,12.2,21,29.94,10.0,West,9.2,-,N/A,,Clear,260,2013-03-22 22:35:00
6:55 PM,50.0,12.2,22,29.95,10.0,West,11.5,18.4,N/A,,Clear,270,2013-03-22 22:55:00
7:15 PM,48.2,12.2,24,29.96,10.0,West,6.9,-,N/A,,Clear,270,2013-03-22 23:15:00
7:35 PM,46.4,14.0,27,29.97,10.0,WSW,4.6,-,N/A,,Clear,250,2013-03-22 23:35:00
7:55 PM,46.4,14.0,27,29.97,10.0,West,4.6,-,N/A,,Clear,260,2013-03-22 23:55:00
8:15 PM,46.4,14.0,27,29.97,10.0,West,4.6,-,N/A,,Clear,260,2013-03-23 00:15:00
8:35 PM,44.6,14.0,29,29.98,10.0,West,3.5,-,N/A,,Clear,260,2013-03-23 00:35:00
8:55 PM,44.6,15.8,31,29.98,10.0,Calm,Calm,-,N/A,,Clear,0,2013-03-23 00:55:00
9:15 PM,39.2,21.2,49,29.98,10.0,Calm,Calm,-,N/A,,Clear,0,2013-03-23 01:15:00
9:35 PM,37.4,23.0,56,29.99,10.0,Calm,Calm,-,N/A,,Clear,0,2013-03-23 01:35:00
9:55 PM,35.6,21.2,56,29.99,10.0,Calm,Calm,-,N/A,,Clear,0,2013-03-23 01:55:00
10:15 PM,35.6,23.0,60,30.00,10.0,Calm,Calm,-,N/A,,Clear,0,2013-03-23 02:15:00
10:35 PM,35.6,23.0,60,30.00,10.0,South,3.5,-,N/A,,Clear,190,2013-03-23 02:35:00
10:55 PM,35.6,24.8,65,30.00,10.0,Calm,Calm,-,N/A,,Clear,0,2013-03-23 02:55:00
11:15 PM,33.8,24.8,70,30.00,10.0,Calm,Calm,-,N/A,,Clear,0,2013-03-23 03:15:00
11:35 PM,32.0,24.8,75,30.01,10.0,Calm,Calm,-,N/A,,Clear,0,2013-03-23 03:35:00
11:55 PM,32.0,24.8,75,30.01,10.0,Calm,Calm,-,N/A,,Clear,0,2013-03-23 03:55:00